Other Public Products
Issued by NWS Grand Forks, ND

Home | Current Version | Previous Version | Text Only | Print | Product List | Glossary Off
Versions: 1 2 3 4 5 6 7 8 9 10 11 12 13 14 15 16 17 18 19 20 21 22 23 24 25 26 27 28 29 30 31 32 33 34 35 36 37 38 39 40 41 42 43 44 45 46 47 48 49 50

000
FPUS83 KFGF 192131
OPUFGF
PRAIRIE TO PINES WEATHER ROUNDUP
NATIONAL WEATHER SERVICE EASTERN NORTH DAKOTA/GRAND FORKS ND
400 PM CDT TUE SEP 19 2017

 **SATELLITE DATA USED TO AUGMENT SKY COVER AT AUTOMATED STATIONS**
 *****  WEATHER ACROSS EASTERN NORTH DAKOTA  *****

CITY           SKY/WX    TMP DP  RH WIND       PRES   REMARKS
GRAND FORKS    CLOUDY    75  64  68 SE18G25   29.56R
GRAND FORKS AF FAIR      74  62  67 SE20G29   29.55S
GRAND CITY NWS NOT AVBL
BUXTON           N/A     74  62  66 SE20        N/A
DEVILS LAKE    LGT RAIN  65  63  93 SE18G24   29.50F FOG
FARGO          CLOUDY    73  64  73 SE18G32   29.56F
WAHPETON ARPT  CLOUDY    72  61  68 SE26G33   29.55F
$$

 *****  WEATHER ACROSS CENTRAL AND WESTERN NORTH DAKOTA  *****

CITY           SKY/WX    TMP DP  RH WIND       PRES   REMARKS
JAMESTOWN      TSTM      68  64  87 SE17G30   29.47F
BISMARCK       FAIR      74  53  48 SW8       29.46S
MINOT          CLOUDY    65  56  72 SW16G22   29.43S
MINOT AFB      FAIR      64  56  77 W10       29.41F
GARRISON         N/A     63  56  78 W10G22    29.47R
WILLISTON      PTSUNNY   62  48  60 W16       29.49R
DICKINSON      CLOUDY    59  49  69 W15       29.53R
HETTINGER      LGT RAIN  59  51  75 NW14      29.54S
$$

 *****  OTHER OBSERVATIONS NORTHEAST NORTH DAKOTA  *****

CITY           SKY/WX    TMP DP  RH WIND       PRES   REMARKS
WALHALLA       FAIR     N/A N/A N/A SE12G17   29.54R
LANGDON        CLOUDY    64  64 100 SE15G29   29.54F FOG
CAVALIER       FAIR      70  63  78 SE9       29.53F
GRAFTON        FAIR      72  64  78 SE17G24   29.56S
CANDO          MOCLDY    66  66 100 S20G31    29.49R
FORT TOTTEN      N/A     65  64  95 SE10      29.95S
ROLLA          CLOUDY    64  64 100 S20G30    29.47R
RUGBY          RAIN      64  64 100 SW21      29.42F
 ***** THE ABOVE OBSERVATIONS ARE NON NWS ARE NOT QUALITY
        CONTROLLED AND MAY MIS-REPORT RAIN FOR SNOW...
$$

 *****  OTHER OBSERVATIONS SOUTHEAST NORTH DAKOTA *****

CITY           SKY/WX    TMP DP  RH WIND       PRES   REMARKS
COOPERSTOWN    DRIZZLE   66  66 100 E23G29    29.49F
VALLEY CITY    CLOUDY    68  70 100 SE13      29.53F THUNDER
OAKES          NOT AVBL
GWINNER        MOCLDY    73  66  78 SE20G32   29.47F
BUFFALO          N/A     70  60  70 W12G24      N/A
WYNDMERE       NOT AVBL
 ***** THE ABOVE OBSERVATIONS ARE NON NWS ARE NOT QUALITY
       CONTROLLED AND MAY MIS-REPORT RAIN FOR SNOW...
$$

  *****  WEATHER ACROSS NORTHERN MINNESOTA  *****

CITY           SKY/WX    TMP DP  RH WIND       PRES   REMARKS
FLAG ISLAND    FAIR      64  57  77 E9        29.69F
WARROAD        FAIR      70  63  78 SE16      29.68F
ROSEAU         FAIR      70  63  78 SE13      29.65F
HALLOCK        FAIR      73  63  68 SE18G24   29.56F
THF RVR FALLS  FAIR      73  61  64 SE22G28   29.62F
HALSTAD          N/A     72  63  71 SE18        N/A
FOSSTON        FAIR      72  61  68 SE15G25   29.64S
BAUDETTE       FAIR      71  60  68 SE18G28   29.70F
WASKISH        PTSUNNY   70  61  73 SE14G24   29.71F
CROOKSTON      FAIR      73  61  64 S22G28    29.58S
$$
  *****  WEATHER ACROSS CENTRAL AND WEST MINNESOTA  *****

CITY           SKY/WX    TMP DP  RH WIND       PRES   REMARKS
BEMIDJI        CLOUDY    68  60  77 SE17G24   29.69F
PARK RAPIDS    PTSUNNY   73  62  68 SE21G29   29.68F
WADENA         CLOUDY    72  63  73 SE15G23   29.67F
DETROIT LAKES  PTSUNNY   72  61  68 SE17G28   29.63F
MOORHEAD       CLOUDY    73  63  68 SE16G24   29.56F
FERGUS FALLS   CLOUDY    73  63  68 SE23G31   29.58F
ELBOW LAKE     CLOUDY    72  65  78 SE20G30   29.60F HAZE
MORRIS MN      FAIR      75  66  73 SE26G37   29.57F
STAPLES        CLOUDY    72  61  68 SE14G22   29.70F
WHEATON        FAIR      73  63  68 SE26G35   29.55F
$$
  *****  WEATHER ELSEWHERE ACROSS MINNESOTA  *****

CITY           SKY/WX    TMP DP  RH WIND       PRES   REMARKS
DULUTH         FAIR      67  59  75 E17       29.85F
INTRNTL FALLS  CLOUDY    70  58  65 SE13G21   29.77F
ELY            FAIR      70  57  64 SE13G18   29.85F
CLOQUET        FAIR      66  55  68 E13       29.82F
BRAINERD       PTSUNNY   72  61  68 SE10G20   29.74F
HIBBING        PTSUNNY   69  59  70 SE14G24   29.81F
ALEXANDRIA     CLOUDY    72  63  73 SE21G30   29.68F
SAINT CLOUD    CLOUDY    77  64  64 SE16G23   29.72F
MINNEAPOLIS    PTSUNNY   79  63  57 SE16G26   29.77F
$$

  *****  WEATHER ACROSS SOUTH DAKOTA  *****

CITY           SKY/WX    TMP DP  RH WIND       PRES   REMARKS
SIOUX FALLS    PTSUNNY   81  70  69 SE22G35   29.56F
BROOKINGS      FAIR      78  68  71 SE25G32   29.55F
WATERTOWN      FAIR      77  67  71 SE21G33   29.51F
HURON          FAIR      81  67  62 S15G30    29.46F
SISSETON         N/A     75  67  76 SE21G30   29.51F
ABERDEEN       PTSUNNY   80  67  64 S22G37    29.45F
MITCHELL       FAIR      82  67  60 SE25G39   29.46F
PIERRE         FAIR      81  62  52 S16       29.41F
MOBRIDGE       CLOUDY    76  63  64 S9        29.43S
RAPID CITY     MOSUNNY   70  46  43 N15       29.58R
$$

  *****  SOME WEATHER IN NEARBY STATES *****

CITY           SKY/WX    TMP DP  RH WIND       PRES   REMARKS
GLASGOW MT     PTSUNNY   57  39  51 W18G25    29.54R
GREAT FALLS MT FAIR      54  26  34 W18G26    29.63S
CHEYENNE WY    FAIR      66  35  31 NW28G37   29.73R
SCOTTSBLUFF NE FAIR      79  50  36 NW7       29.56R
OMAHA NE       FAIR      90  65  43 SE26G38   29.62F HX  92
DES MOINES IA  FAIR      84  68  58 SE21G30   29.76F
DAVENPORT IA   FAIR      78  64  61 E10       29.91S
CHICAGO IL     PTSUNNY   77  62  59 E8        29.92F
EAU CLAIRE WI  PTSUNNY   79  62  56 SE18G25   29.84F
LA CROSSE WI   FAIR      83  63  50 SE14      29.84F
$$

  *****  SOME NATIONAL WEATHER *****

CITY           SKY/WX    TMP DP  RH WIND       PRES   REMARKS
LA GUARDIA NY  LGT RAIN  73  67  81 N16G22    29.89F
RALEIGH NC     FAIR      84  60  44 VRB5      29.92F
ATLANTA GA     FAIR      88  61  40 NW7       29.96F
NEW ORLEANS LA PTSUNNY   84  77  79 W8        29.92F HX  94
OKLAHOMA CITY  FAIR      93  66  40 S21G31    29.74F HX  96
ALBUQUERQUE NM FAIR      86  14   7 W20G28    29.95F
SALT LAKE CITY PTSUNNY   58  36  43 N6        29.93F
LOS ANGELES CA PTSUNNY   73  61  65 W10       29.90F
BOISE ID       PTSUNNY   54  43  66 E6        29.89F
SEATTLE WA     PTSUNNY   57  51  80 SW10      29.75F
$$

*** WEATHER ACROSS MANITOBA...SASKATCHEWAN AND ONTARIO ***
                ***ONTARIO***

CITY           SKY/WX    TMP DP  RH WIND       PRES   REMARKS
GERALDTON      PTSUNNY   66  52  59 SE7       30.02F
THUNDER BAY    PTSUNNY   63  54  72 E13       29.97F
SIOUX LOOKOUT  CLOUDY    63  57  82 SE9       29.87F
TORONTO        PTSUNNY   79  64  61 SE9       29.97F
BIG TROUT LK   SUNNY     57  37  47 SE7       29.99F
PICKLE LAKE    CLOUDY    59  52  77 SE12      29.94F
DRYDEN         CLOUDY    64  57  77 SE12G18   29.83F
KENORA         PTSUNNY   64  57  77 SE15      29.74
$$
                *** MANITOBA***

CITY           SKY/WX    TMP DP  RH WIND       PRES   REMARKS
BRANDON        TSTM      61  61 100 SE14G22   29.45F FOG
DAUPHIN        LGT RAIN  57  57 100 SE20G32   29.45F FOG
ISLAND LAKE    NOT AVBL
PILOT MOUND      N/A    N/A N/A N/A SE21G29     N/A
THE PAS        CLOUDY    57  48  72 E17G32    29.63F
THOMPSON       PTSUNNY   59  36  41 E8        29.85F
WINNIPEG       NOT AVBL
LYNN LAKE      SUNNY     57  37  47 E13G21    29.81F
CHURCHILL      PTSUNNY   46  39  76 E14       30.03R
GILLAM         MOSUNNY   57  37  47 SE7       29.94F
$$
                ***SASKATCHEWAN***

CITY           SKY/WX    TMP DP  RH WIND       PRES   REMARKS
ESTEVAN        CLOUDY    61  50  67 W18       29.45R
KINDERSLEY     CLOUDY    50  39  66 NW16G24   29.47S
LLOYDMINSTER   CLOUDY    46  39  76 W16G22    29.43S
PRINCE ALBERT  LGT RAIN  52  50  93 E14       29.45F FOG
REGINA         PTSUNNY   55  50  82 W18G24    29.42R
YORKTON        LGT RAIN  59  59 100 SE14G20   29.34F
N. BATTLEFORD  CLOUDY    48  45  87 W12       29.45S



USA.gov is the U.S. government's official web portal to all federal, state and local government web resources and services.